Regional Weather Roundup
Issued by NWS Charleston, WV

Home | Current Version | Previous Version | Graphics & Text | Print | Product List | Glossary On
Versions: 1 2 3 4 5 6 7 8 9 10 11 12 13 14 15 16 17 18 19 20 21 22 23 24 25 26 27 28 29 30 31 32 33 34 35 36 37 38 39 40 41 42 43 44 45 46 47 48 49 50
000
ASUS41 KRLX 041810
RWRRLX
West Virginia Regional Weather Roundup
National Weather Service Charleston WV
200 PM EDT WED MAY 04 2016

Note: "fair" indicates few or no clouds below 12,000 feet with no
significant weather and/or obstructions to visibility.

WVZ003-041900-
Northern Panhandle of West Virginia

CITY           SKY/WX    TMP DP  RH WIND       PRES   REMARKS
WHEELING       PTSUNNY   60  42  51 W15       29.65F
$$

WVZ009-041900-
Northwest West Virginia

CITY           SKY/WX    TMP DP  RH WIND       PRES   REMARKS
PARKERSBURG    PTSUNNY   63  46  54 VRB3      29.67F
$$

WVZ006-041900-
Western West Virginia

CITY           SKY/WX    TMP DP  RH WIND       PRES   REMARKS
HUNTINGTON     LGT RAIN  61  45  55 S10       29.66F
$$

WVZ015-041900-
West Central West Virginia

CITY           SKY/WX    TMP DP  RH WIND       PRES   REMARKS
CHARLESTON     PTSUNNY   62  41  46 VRB5      29.67F
$$

WVZ022-031-041900-
North Central West Virginia

CITY           SKY/WX    TMP DP  RH WIND       PRES   REMARKS
CLARKSBURG     RAIN      50  47  89 SW3       29.68S FOG
MORGANTOWN     CLOUDY    59  43  55 N3        29.67F
$$

WVZ025-035-042-045-041900-
Southern West Virginia

CITY           SKY/WX    TMP DP  RH WIND       PRES   REMARKS
BECKLEY        CLOUDY    53  42  66 SW14G20   29.71F
LOGAN          NOT AVBL
BLUEFIELD      PTSUNNY   54  35  48 W12G18    29.72F
LEWISBURG      CLOUDY    57  41  55 S6        29.69F
$$

WVZ047-041900-
Northern Mountains of West Virginia

CITY           SKY/WX    TMP DP  RH WIND       PRES   REMARKS
ELKINS         CLOUDY    55  46  71 N6        29.69F
$$

WVZ052-041900-
Eastern Panhandle of West Virginia

CITY           SKY/WX    TMP DP  RH WIND       PRES   REMARKS
MARTINSBURG    CLOUDY    61  53  75 E9        29.65F
PETERSBURG     CLOUDY    59  50  72 W3        29.68S
$$



USA.gov is the U.S. government's official web portal to all federal, state and local government web resources and services.